Wind_Gust
17 17 17 16 17 17 17 16 16 16 16 16 16 16 16 16 16 16 16 16 17 17 18 18 18 18 18 18 19 20 15 20 20 16 11 25 11 14 15 8 19 24 15 10 14 17 11 11 11 5 11 11 7 12 10 8 7 10 14 11 11 9 14 11 13 15 8 9 12 13 12 11 10 9 9 7 16 15 12 13 12 16 16 11 15 22 25 24
18 18 18 17 16 16 16 17 18 17 16 15 16 16 16 15 15 16 16 16 16 17 18 17 18 18 18 18 18 17 17 16 18 18 36 14 15 15 18 12 14 18 18 13 19 14 18 11 10 12 15 14 6 10 8 13 8 14 9 12 17 14 13 9 9 9 8 9 12 12 12 6 10 7 7 6 9 12 13 10 10 17 19 19 22 25 25 25
17 18 17 17 18 17 16 17 16 18 17 17 16 16 16 16 16 16 16 16 16 17 17 17 18 18 18 18 18 14 16 16 10 20 31 22 32 25 20 18 15 23 24 16 12 17 20 17 14 15 8 10 6 10 9 13 13 9 12 15 19 10 10 10 7 8 11 10 15 15 11 9 13 6 6 8 13 10 11 14 12 15 17 19 22 23 24 24
17 17 17 17 17 17 17 17 16 16 17 17 16 15 15 16 16 16 16 16 16 17 16 17 17 18 18 17 18 11 10 10 13 17 6 7 18 22 16 16 17 22 13 8 12 13 9 15 14 14 10 9 8 6 18 13 18 11 12 16 12 9 14 9 11 13 12 5 8 8 11 12 9 9 8 11 12 8 8 10 10 18 21 21 22 24 25 25
17 17 18 18 18 18 17 17 16 16 16 17 16 15 15 15 16 15 15 15 15 16 16 16 16 17 18 18 14 9 9 10 16 5 5 6 6 9 18 19 21 19 15 15 14 11 17 18 16 7 10 14 8 10 11 11 8 13 14 7 9 8 9 10 10 6 6 5 4 6 16 9 13 8 9 12 7 10 7 7 11 24 25 26 26 25 24 25
17 17 19 18 19 19 19 18 17 17 17 17 16 16 15 16 16 15 16 16 15 16 16 16 16 16 17 18 10 6 7 16 6 6 7 3 3 8 17 21 22 17 17 19 15 15 19 11 18 15 14 11 15 19 9 13 11 18 8 9 13 10 14 5 6 6 6 9 8 12 8 9 9 14 8 9 7 5 9 8 16 24 25 24 24 27 24 23
17 17 18 18 18 19 19 19 18 16 16 17 17 16 15 16 16 15 16 16 16 15 16 15 15 15 15 12 6 6 8 28 12 10 11 6 5 9 19 23 23 17 18 19 17 23 14 17 15 13 13 9 8 17 9 11 7 13 14 6 10 10 17 7 13 6 10 4 12 7 6 10 6 9 7 7 7 7 8 11 18 23 22 23 26 25 27 26
17 18 18 18 19 18 19 18 18 17 17 17 16 16 15 15 15 16 15 15 15 15 15 14 13 14 12 11 6 6 6 24 28 8 11 11 8 17 19 16 19 16 19 23 22 19 18 21 21 11 13 20 12 21 9 11 9 17 16 9 10 8 10 9 11 12 9 10 12 8 9 6 11 7 6 7 9 9 14 19 21 23 23 21 22 24 21 19
17 18 19 20 20 19 18 18 18 17 17 17 17 17 16 15 16 16 16 15 14 15 14 13 12 11 11 6 6 7 21 20 10 14 11 7 11 16 23 21 15 20 19 15 15 18 22 20 13 19 16 19 8 18 7 16 17 15 15 6 6 11 6 7 12 13 7 10 9 9 12 8 9 7 6 10 9 12 17 20 23 23 22 22 22 23 20 20
17 17 18 19 20 20 19 17 18 17 16 17 16 15 15 15 16 16 15 15 14 14 14 12 12 9 7 7 6 10 16 8 8 9 6 10 11 15 8 17 23 19 19 15 12 18 23 24 24 14 11 8 12 12 9 15 12 11 14 15 17 14 9 8 8 10 6 10 9 10 12 8 7 7 7 8 9 15 19 20 20 22 22 21 20 19 17 19
17 19 19 18 19 20 20 19 17 17 16 16 17 16 17 16 16 16 15 15 14 14 12 12 9 9 6 5 11 19 11 4 9 9 7 9 13 15 14 18 21 26 17 13 20 22 11 13 9 12 7 15 15 7 14 14 9 8 9 6 12 11 8 12 11 16 7 13 9 12 7 7 8 7 6 11 12 14 20 20 19 17 18 20 18 18 17 17
20 20 20 19 19 18 18 18 19 18 17 17 17 17 17 16 16 16 16 15 14 13 11 10 10 9 9 10 14 26 4 5 7 12 10 8 9 4 5 16 20 21 23 21 17 10 11 14 13 11 13 15 17 10 13 8 10 7 10 9 8 7 13 9 16 7 9 10 7 11 6 8 6 6 10 11 14 14 17 20 19 18 17 16 17 17 16 18
19 20 19 19 19 19 18 18 17 18 18 18 18 17 18 17 16 17 15 15 13 12 11 10 8 8 6 11 26 27 18 12 11 11 13 9 5 6 7 10 7 8 11 19 16 13 7 12 15 10 7 11 12 15 6 10 7 9 7 7 9 7 12 6 5 5 8 7 9 11 11 8 10 11 13 7 15 16 15 15 17 18 17 17 16 16 14 15
21 20 19 18 19 19 18 19 19 18 18 19 20 18 17 18 18 18 17 15 14 12 9 9 8 7 12 21 21 10 14 13 15 18 19 11 8 6 7 9 5 6 8 9 7 9 8 6 7 8 7 9 11 5 8 8 7 18 8 7 7 8 11 6 6 8 10 5 10 8 12 10 10 13 16 8 14 19 18 17 17 17 16 16 16 13 14 15
20 19 19 18 18 19 18 19 19 18 17 20 20 20 20 20 20 19 17 15 12 10 10 9 10 9 9 27 14 22 26 10 14 21 10 15 15 6 9 7 8 7 6 8 10 7 7 4 10 13 12 5 6 5 7 6 8 7 19 14 7 10 9 12 6 9 12 8 5 8 6 8 15 19 17 10 7 8 14 17 16 15 14 15 16 13 14 13
20 19 19 18 17 17 17 18 19 19 18 20 20 21 22 23 23 22 19 15 12 10 10 6 12 11 10 26 15 6 9 11 16 15 15 15 17 13 12 9 8 6 5 4 6 7 7 6 13 12 10 6 10 9 8 12 9 8 12 7 11 9 9 7 7 5 7 9 7 9 9 7 12 20 19 13 9 10 8 9 10 11 11 13 14 12 12 14
19 19 19 18 18 17 17 18 19 19 18 18 21 20 22 23 23 23 18 13 11 10 12 8 11 12 11 12 9 10 14 13 5 7 10 20 19 14 19 12 10 9 6 7 5 8 8 16 7 10 8 9 7 11 14 13 9 13 7 10 7 12 9 10 9 6 6 7 14 7 10 14 11 16 18 16 9 8 9 9 8 8 9 10 10 11 12 13
18 18 18 17 17 16 17 18 19 18 18 18 19 20 28 26 16 4 9 11 10 11 12 7 8 10 30 19 15 9 5 4 6 8 11 7 13 16 17 15 9 14 12 10 6 11 11 17 9 16 10 10 12 16 23 19 16 13 14 10 9 6 6 6 11 7 5 8 12 7 13 15 16 17 21 18 15 9 11 8 11 12 9 11 11 13 14 14
17 17 17 17 16 17 17 18 19 18 18 16 15 21 19 7 9 10 17 19 17 8 8 18 19 18 8 6 9 9 9 6 5 12 12 19 12 11 9 10 19 22 17 16 12 13 13 10 8 14 23 17 18 17 17 9 13 15 15 14 9 12 11 12 8 6 6 8 11 11 13 14 19 21 20 19 17 16 13 10 8 10 14 12 11 14 14 11
16 17 17 18 17 18 17 16 17 18 16 11 18 18 7 8 8 8 7 11 17 13 8 11 24 10 14 6 6 12 11 3 8 6 12 12 24 15 14 15 11 9 22 20 15 12 13 22 27 25 17 15 12 14 16 10 11 12 9 11 11 9 7 9 9 9 7 16 15 15 18 18 18 19 17 16 16 22 20 17 14 9 8 11 11 10 9 10
18 18 18 18 18 18 17 16 15 15 12 11 14 14 7 7 7 12 12 19 20 18 16 12 27 21 20 8 8 20 20 10 5 4 17 16 19 24 18 18 19 16 15 13 24 10 12 17 20 12 14 16 17 12 13 14 7 12 12 10 9 6 12 8 8 8 8 9 10 10 22 19 16 17 19 16 23 23 20 18 17 14 11 7 6 7 8 8
17 18 17 17 17 17 17 17 16 13 9 7 9 13 11 10 7 9 6 18 15 26 23 21 11 24 22 21 8 10 6 11 14 7 7 18 19 26 11 15 20 21 10 13 14 19 22 23 13 14 10 11 11 11 14 16 11 7 9 9 9 10 10 11 7 6 8 19 14 10 23 16 12 17 22 24 21 19 17 17 15 15 14 12 10 8 7 8
16 16 17 17 18 17 17 16 14 13 11 8 10 11 12 8 6 9 6 13 21 18 22 21 20 27 29 17 17 5 10 16 16 8 18 17 16 15 21 18 17 15 14 19 26 17 20 15 15 11 14 16 9 10 14 12 9 10 10 10 12 9 11 16 7 8 10 12 20 14 25 17 12 13 22 22 20 19 17 18 19 18 18 15 13 13 15 13
17 16 17 17 17 17 17 16 13 9 7 7 12 17 8 7 7 12 7 14 15 10 20 22 28 18 23 20 21 23 17 14 13 11 11 22 26 10 23 16 16 15 22 19 17 24 14 14 12 16 11 17 16 11 16 14 12 5 8 9 9 9 8 9 11 6 6 14 11 18 20 16 18 17 19 20 18 21 21 19 22 22 19 17 17 18 16 14
16 16 16 16 16 16 15 17 10 7 7 13 16 18 18 16 12 7 7 12 12 21 10 7 14 18 15 12 14 22 16 10 16 8 18 21 18 18 16 15 18 17 15 12 17 20 11 9 17 17 11 11 17 12 13 17 13 10 10 12 11 9 10 9 11 15 17 15 9 8 16 11 12 14 20 18 21 24 21 23 23 21 21 20 21 19 18 15
17 17 17 17 17 16 17 14 6 9 14 15 9 6 6 9 10 9 8 10 14 11 10 14 23 20 29 15 20 14 14 16 17 21 12 18 13 19 21 20 17 21 15 18 22 20 13 12 18 20 18 13 16 16 12 12 15 14 17 14 10 10 8 8 11 10 18 23 13 7 11 14 8 12 17 16 19 20 21 25 23 22 21 20 20 20 19 18
17 16 16 15 14 13 14 8 9 14 14 9 8 9 8 10 9 10 12 9 11 17 18 8 16 21 23 20 27 20 15 18 8 9 14 13 20 6 24 14 11 11 14 17 19 25 13 12 9 12 16 17 14 16 12 12 15 21 6 15 9 9 11 9 10 9 9 9 9 9 10 20 15 12 13 14 17 20 22 23 24 23 21 20 20 20 18 19
18 16 15 15 14 11 13 18 14 15 13 7 10 12 14 11 8 8 10 9 19 5 12 11 17 13 11 20 23 30 9 16 22 15 17 14 11 9 15 20 22 18 13 15 28 10 14 16 14 16 12 15 19 12 15 14 19 12 7 15 17 15 11 9 9 9 7 12 13 11 9 17 9 9 10 12 14 20 21 21 23 22 19 18 20 20 18 19
18 17 15 14 14 14 14 16 15 18 8 7 13 15 14 11 10 11 7 10 13 16 13 20 12 12 9 18 19 16 8 12 12 16 13 10 7 13 19 13 14 19 8 15 19 11 13 18 18 18 20 19 10 11 18 17 20 8 12 12 11 12 12 7 8 12 8 12 13 11 11 17 10 12 14 11 14 16 16 17 19 19 19 18 18 18 18 18
19 17 15 14 13 11 10 9 22 15 12 15 14 17 14 8 11 8 9 14 11 10 7 8 16 15 17 27 22 11 9 8 7 15 16 20 13 7 9 7 18 18 14 7 8 7 7 6 11 16 20 17 15 9 18 22 6 14 12 15 11 11 7 7 10 6 9 10 10 9 9 11 17 9 10 10 9 8 10 14 17 18 18 19 19 19 19 18
19 18 14 13 16 11 14 17 15 12 9 8 14 15 7 8 9 9 7 19 10 9 7 9 10 17 23 23 22 14 5 5 14 25 21 14 10 7 15 17 10 16 9 9 13 6 7 10 15 13 7 10 11 14 7 8 10 16 14 13 16 10 8 8 6 8 11 12 8 6 7 11 17 10 9 9 8 8 10 14 16 17 18 18 17 18 18 17
20 19 18 17 17 14 17 11 7 7 10 14 14 8 11 10 8 15 17 9 15 15 12 8 9 17 18 9 13 23 22 10 13 29 28 29 17 21 22 19 26 25 23 19 25 7 10 15 7 5 7 14 15 17 8 7 8 8 11 19 22 15 13 16 13 16 17 13 9 9 9 11 15 10 12 9 8 10 11 16 16 16 16 17 17 17 16 17
18 17 22 22 17 19 23 22 17 15 12 14 13 9 12 9 16 13 19 10 10 10 11 15 8 11 15 14 17 18 8 16 10 17 20 16 22 14 6 13 13 18 28 10 11 15 12 8 7 7 7 9 21 24 18 16 15 12 22 20 26 24 20 14 10 8 8 7 7 9 9 14 14 12 9 11 9 15 17 17 16 15 16 16 16 16 17 19
17 20 24 15 19 21 19 15 13 6 10 11 9 10 8 10 17 11 15 9 9 5 11 9 19 10 17 25 15 21 15 5 17 22 20 21 19 19 13 5 12 11 12 10 24 19 19 20 21 17 20 12 21 15 22 14 17 16 6 21 13 16 26 20 21 20 15 12 7 8 10 17 18 16 13 13 14 16 16 17 15 16 14 13 13 17 18 19
19 21 20 20 20 22 21 19 14 11 9 6 8 11 15 19 6 9 6 11 8 13 13 13 18 10 17 9 9 22 12 15 7 18 16 25 20 19 20 19 8 10 10 27 10 15 15 14 9 14 5 19 19 10 16 18 17 10 10 10 15 21 13 12 10 9 13 15 8 12 8 8 11 12 7 13 17 16 15 16 16 16 14 14 19 19 18 18
18 18 15 24 18 13 14 15 15 15 12 8 13 15 18 12 11 6 6 9 9 9 18 26 15 16 17 14 9 24 5 16 13 17 11 20 14 21 12 15 22 12 19 21 15 14 10 22 5 9 6 21 19 18 12 21 28 19 13 22 12 11 20 17 6 8 7 12 8 4 10 10 11 9 13 15 18 17 15 16 16 15 15 17 18 17 16 17
18 20 17 10 14 11 12 14 20 19 11 7 13 18 15 12 9 8 6 9 9 12 17 13 11 12 17 20 17 23 10 16 8 15 17 10 16 11 15 10 6 11 12 18 11 10 19 13 6 13 11 7 7 8 12 6 12 24 22 17 10 8 10 15 18 7 8 12 10 6 10 13 18 17 17 17 18 17 16 16 15 15 15 16 15 16 15 15
21 19 21 20 13 12 16 20 22 16 10 8 17 7 6 11 8 7 8 14 15 11 13 7 15 7 13 11 17 20 13 21 13 11 16 12 21 7 11 17 8 18 15 9 16 12 8 13 7 6 6 7 6 16 12 8 10 20 18 18 22 12 16 9 19 11 15 11 13 8 11 13 16 9 18 17 19 18 17 16 15 14 14 14 14 15 15 15
15 13 16 8 9 18 20 25 16 16 7 14 10 13 8 12 5 6 11 14 13 15 18 17 14 8 10 11 11 7 15 22 17 9 22 15 15 10 14 10 13 11 11 10 9 10 7 12 8 5 8 9 9 14 19 15 9 11 15 17 8 11 9 16 10 12 15 12 12 9 11 14 18 11 19 19 20 18 19 17 14 13 13 14 13 15 17 18
11 10 8 8 10 15 22 18 12 7 8 13 8 14 4 7 5 8 12 14 14 12 17 14 11 13 8 9 13 15 8 16 20 10 7 11 10 6 8 5 15 14 7 6 9 5 7 6 16 8 5 9 21 13 16 21 16 15 22 13 11 11 7 14 11 9 14 23 13 17 14 15 9 8 18 19 20 19 21 20 14 12 13 14 14 14 14 14
7 8 8 9 14 17 16 8 11 15 13 6 4 7 5 7 6 7 12 13 19 13 24 25 18 11 11 11 12 11 13 10 14 13 9 11 9 18 8 9 8 15 9 6 7 7 9 6 11 8 16 9 6 6 8 10 13 23 21 17 15 18 18 19 9 8 10 18 22 20 16 10 9 7 11 20 19 22 20 21 16 13 13 14 14 13 14 15
7 9 9 10 14 17 11 14 11 6 9 9 11 13 9 4 7 7 13 17 10 22 16 26 20 20 12 14 10 9 16 11 6 8 7 13 6 6 8 3 5 9 22 17 14 8 9 9 15 10 9 10 6 10 6 7 12 11 11 15 8 9 15 14 18 10 10 9 10 10 11 8 10 9 15 19 17 21 21 19 17 14 14 14 13 13 14 16
9 8 7 14 14 8 7 6 5 8 8 9 7 8 7 7 7 7 14 12 16 20 23 20 16 13 12 10 8 11 10 17 6 8 7 7 7 6 4 5 7 7 9 13 7 9 8 13 17 12 9 7 6 5 9 10 7 16 15 11 7 12 9 15 13 19 16 12 14 7 9 10 9 12 17 22 21 20 19 17 17 15 14 14 12 12 14 14
8 7 10 7 10 7 7 12 11 6 9 8 3 8 3 7 5 12 18 15 17 5 10 10 4 10 7 5 15 17 8 17 6 6 10 5 11 3 3 4 10 17 14 17 19 12 18 7 12 16 15 11 12 9 8 8 13 13 10 8 8 7 11 10 15 8 17 14 9 19 14 10 12 14 17 20 22 21 20 16 14 16 15 14 12 13 14 15
11 8 9 10 10 9 7 6 7 8 9 5 5 7 6 7 10 22 19 15 8 9 8 11 9 4 9 7 14 8 8 9 17 6 7 4 8 3 5 6 6 7 6 5 7 15 14 6 8 13 16 17 19 19 19 14 9 9 8 8 11 7 13 13 13 12 11 12 8 11 10 11 15 15 17 18 20 19 18 16 15 15 17 15 13 13 15 15
8 15 10 9 10 7 9 5 6 8 8 6 3 9 6 8 9 10 12 18 17 9 14 15 6 7 9 13 13 10 11 7 12 15 9 8 7 7 5 6 5 10 12 16 11 16 17 11 13 8 12 11 7 8 8 6 10 11 6 11 8 8 10 9 12 12 14 15 12 7 14 22 18 17 17 16 17 18 18 15 16 15 17 17 14 14 15 15
8 8 15 14 7 12 12 9 8 6 6 8 7 5 7 9 10 16 11 10 7 9 11 8 7 10 9 14 12 12 7 10 11 17 5 9 4 8 5 5 8 13 14 15 9 16 14 15 13 18 21 14 9 8 8 7 12 10 9 8 9 8 8 6 13 14 15 20 10 7 20 28 24 19 17 18 17 17 16 15 14 14 17 17 15 15 14 15
6 6 6 5 10 10 7 11 10 11 5 5 6 4 6 6 6 8 6 9 5 5 8 5 13 10 3 10 13 18 6 10 9 12 7 6 11 5 11 11 9 9 7 11 8 14 14 12 8 17 17 16 13 14 15 21 19 17 16 12 12 10 8 9 6 6 6 12 12 18 21 21 21 17 17 16 16 17 16 15 14 15 19 18 16 17 17 17
7 7 8 4 6 5 8 5 10 14 10 7 7 4 6 5 4 6 3 11 9 9 7 10 11 12 9 5 8 15 12 23 10 7 12 11 6 10 12 7 10 10 11 10 12 10 20 15 11 18 22 19 15 13 12 21 19 20 18 16 15 17 17 17 15 9 8 8 12 29 22 20 13 14 16 17 16 17 16 15 16 18 20 17 16 17 17 15
5 5 7 5 5 6 6 4 7 9 9 9 10 9 8 5 4 6 4 8 6 4 6 14 8 13 14 13 9 14 6 6 18 19 8 10 8 6 8 6 11 8 10 10 8 7 14 12 14 7 13 15 14 13 15 16 17 26 18 17 15 16 20 18 19 17 20 21 23 25 24 19 12 16 19 17 17 16 17 16 17 18 18 16 17 17 16 15
9 8 8 9 7 6 5 5 8 9 7 6 7 7 4 4 3 4 4 4 3 7 8 12 7 15 14 18 20 13 7 9 13 10 10 7 15 7 10 9 6 11 8 10 8 8 14 17 8 6 13 8 8 14 14 16 20 24 20 20 18 12 13 10 12 8 7 18 23 22 20 17 15 17 18 17 17 16 17 17 17 17 16 15 18 16 15 14
9 5 6 8 7 7 6 5 4 7 6 9 13 7 6 2 5 3 11 5 10 9 8 6 4 20 10 20 17 12 7 9 15 14 17 19 19 17 16 13 9 8 11 10 6 11 10 27 17 10 16 9 10 6 6 8 8 9 11 12 11 14 14 16 17 16 12 21 24 19 13 17 19 17 18 15 16 16 16 16 16 16 16 16 17 15 14 13
Wind_Speed
13 13 13 13 12 13 13 13 12 12 12 12 12 12 12 12 11 12 12 12 12 13 13 13 13 13 14 14 14 15 11 11 12 8 6 13 6 9 11 6 15 18 8 5 9 11 6 6 7 2 5 4 2 5 3 3 1 3 4 3 4 1 6 4 6 6 3 3 6 8 7 6 5 4 3 1 9 9 6 7 6 8 8 5 8 13 15 15
13 13 14 13 13 12 12 12 12 14 12 12 11 12 12 12 12 11 12 12 12 12 13 13 13 13 14 14 14 12 11 9 11 11 21 5 11 12 14 9 11 14 11 8 12 9 11 6 6 7 7 5 1 2 3 3 3 5 2 3 7 5 3 1 1 3 2 4 7 7 6 2 5 3 2 0 4 6 7 4 5 9 10 10 12 14 15 16
13 13 13 13 13 13 12 12 13 12 13 13 12 11 12 12 12 12 11 12 12 12 13 13 13 13 13 13 14 9 9 8 5 12 16 15 24 19 14 13 12 18 16 10 8 11 12 11 8 9 2 3 1 4 4 4 5 2 4 6 8 3 4 4 2 3 5 6 9 9 6 3 7 2 2 3 7 5 5 6 5 6 9 11 13 14 15 15
12 13 13 13 12 13 12 13 12 12 12 12 12 11 11 11 12 11 11 12 11 12 12 12 12 13 13 13 13 5 5 4 4 6 1 5 12 14 13 13 14 16 8 4 7 6 5 9 9 8 4 3 2 1 8 4 6 3 3 6 3 3 6 3 5 7 5 1 4 4 6 6 5 4 3 6 6 3 3 4 4 11 13 13 14 15 15 15
13 13 13 14 14 14 12 12 12 12 12 13 12 12 11 11 11 11 11 12 12 11 12 12 12 12 13 13 10 3 3 4 3 1 2 4 5 7 15 15 17 13 9 9 8 6 11 11 9 2 3 4 3 4 4 5 2 5 6 2 2 3 3 4 5 2 1 1 0 2 10 5 7 3 4 6 0 4 2 2 5 14 16 16 16 16 14 15
12 13 13 14 14 14 14 14 13 13 12 12 12 11 11 12 12 12 11 12 12 11 11 12 12 11 12 13 4 1 2 4 2 2 4 3 3 6 13 17 17 11 11 13 8 9 12 6 10 6 4 4 8 8 3 6 5 7 3 4 7 5 7 1 1 2 3 1 4 7 2 4 3 7 3 4 2 0 3 3 9 15 16 14 15 16 15 14
11 13 13 14 13 14 14 14 14 13 12 11 12 12 11 11 11 11 11 11 12 11 11 11 11 11 11 8 0 2 2 8 5 4 8 5 4 5 13 17 17 11 12 11 11 11 9 11 9 8 6 4 4 7 4 6 3 6 4 1 5 6 11 3 8 3 5 1 6 3 2 5 2 5 2 2 3 3 3 5 10 13 13 13 15 16 16 15
12 13 14 14 14 14 14 14 12 12 12 13 12 11 11 11 11 11 11 11 11 11 11 10 10 10 8 6 1 1 1 9 12 4 9 7 5 12 14 11 13 10 12 15 15 12 12 13 12 5 5 9 5 11 4 6 5 8 7 5 5 3 4 5 5 5 3 5 7 4 4 1 6 2 2 1 4 3 5 9 12 12 13 12 12 14 12 12
12 13 13 14 15 15 13 13 14 13 12 12 12 12 12 11 11 12 11 11 11 10 10 9 9 8 7 1 1 2 8 9 6 9 7 3 7 12 16 10 10 13 10 8 10 11 14 11 8 11 7 11 3 12 3 8 7 8 9 2 2 6 0 2 6 6 2 3 4 5 5 2 4 2 2 5 4 4 8 10 12 13 12 13 12 12 13 12
13 13 13 12 13 15 15 13 11 12 13 11 12 12 11 12 11 12 11 11 10 10 10 9 8 6 3 2 1 3 5 3 4 5 3 6 7 10 5 11 15 12 10 9 7 11 14 11 15 9 4 3 6 6 5 9 2 6 8 9 11 8 3 3 4 5 1 5 5 5 6 3 3 3 2 4 4 8 10 11 10 11 12 11 9 10 11 12
13 14 15 14 13 13 14 15 14 13 12 12 12 12 12 12 11 11 11 11 10 10 9 8 6 5 2 0 4 8 2 0 4 3 4 5 8 9 8 11 14 14 11 8 12 15 4 7 4 5 2 4 8 3 7 5 5 3 5 3 7 6 4 7 6 10 2 6 4 7 3 3 1 3 0 5 7 9 11 12 12 9 8 8 10 11 11 11
14 15 15 15 15 14 13 12 13 13 13 13 13 13 13 13 11 11 11 11 10 9 8 6 7 3 4 4 6 10 1 2 2 6 5 3 4 1 1 8 13 14 15 13 11 6 5 8 8 4 3 8 6 5 6 4 6 3 6 4 2 0 5 5 9 1 4 4 3 6 2 3 2 2 5 6 8 8 9 11 11 10 7 8 10 9 8 9
14 16 15 15 14 14 14 13 13 13 13 13 14 14 13 14 12 12 12 11 9 8 8 6 5 3 2 5 12 14 10 5 6 7 7 4 0 1 3 6 2 2 4 12 10 8 2 6 9 5 2 5 6 3 2 6 3 4 3 2 3 2 5 2 0 1 3 2 2 6 4 1 0 5 2 2 8 9 9 8 9 8 7 8 9 7 7 8
15 15 15 15 14 14 14 13 14 13 13 13 15 14 13 13 13 13 13 12 10 9 7 6 3 2 6 8 7 5 9 6 9 11 12 5 4 1 3 5 0 2 3 4 3 4 4 1 4 3 2 4 4 1 4 3 1 7 3 1 2 2 3 1 0 3 5 1 3 3 4 3 1 8 10 2 7 10 10 9 10 8 7 8 8 7 7 8
15 15 15 14 13 12 13 13 14 14 14 14 15 15 15 16 16 14 13 11 9 7 7 7 4 3 3 10 8 15 19 5 8 13 4 8 9 2 5 3 4 3 2 4 4 3 2 1 5 6 4 1 1 1 1 1 3 1 7 5 1 3 2 3 2 5 5 3 0 4 2 0 9 11 11 3 2 1 2 5 6 4 6 8 9 7 8 7
15 14 15 14 13 13 13 13 14 14 13 14 14 15 17 16 17 17 15 12 9 8 5 2 5 5 4 10 3 3 4 5 8 8 8 9 10 7 7 5 4 2 1 1 1 2 2 1 5 4 3 1 2 2 2 4 2 3 5 3 4 3 1 1 3 1 3 3 2 4 1 2 5 11 10 7 4 1 2 2 2 3 4 6 6 6 6 7
14 14 13 13 13 13 13 13 13 15 14 14 16 16 17 17 18 18 14 10 6 5 5 2 5 5 3 2 3 5 5 6 1 3 6 12 12 8 12 7 4 5 2 3 1 3 4 7 1 2 3 1 1 4 6 5 3 4 1 3 1 6 3 3 2 2 2 3 7 1 3 8 4 9 11 10 4 2 2 4 3 3 4 5 5 6 6 6
13 13 13 13 12 12 13 13 13 14 14 14 14 15 16 20 11 2 6 6 4 4 5 2 3 3 11 6 6 3 1 1 2 2 6 2 7 10 11 6 4 8 7 5 2 4 4 6 2 6 4 4 5 7 9 8 6 5 6 4 3 1 2 1 3 1 1 3 7 3 6 7 8 9 12 11 8 3 4 2 5 6 5 6 6 7 7 5
13 13 13 12 12 13 13 13 14 15 13 11 11 15 13 4 3 5 8 8 7 3 1 6 7 6 1 1 3 5 4 2 2 7 6 11 6 5 5 5 12 14 7 7 4 7 4 2 2 5 10 8 8 9 7 4 7 9 9 7 4 5 4 4 2 1 2 3 5 4 5 6 11 12 11 10 9 9 7 5 2 4 7 6 6 7 6 5
12 12 13 13 14 13 14 13 12 13 13 7 9 8 1 2 3 3 2 5 8 5 2 6 12 4 8 2 2 7 6 1 4 3 7 7 12 9 8 8 5 3 11 8 7 6 5 10 12 12 8 8 7 8 10 3 5 6 4 6 5 4 2 3 2 2 2 8 7 8 10 10 10 11 10 8 9 13 11 9 6 3 2 4 5 4 3 5
13 14 14 13 13 13 12 12 12 9 9 6 7 6 2 2 3 4 4 10 12 11 10 6 17 12 7 4 3 11 10 3 2 0 10 9 13 15 8 9 9 8 7 7 12 3 5 8 10 7 8 10 11 6 8 8 3 7 6 5 4 2 5 2 3 3 2 4 3 4 13 11 9 9 10 8 12 14 11 9 9 7 4 1 1 2 4 4
13 12 12 12 13 13 13 12 12 11 6 3 4 5 4 4 2 3 1 5 8 18 15 13 6 13 11 12 2 5 3 5 7 1 3 11 10 12 6 8 11 10 5 5 6 7 9 10 7 7 5 6 6 6 9 10 6 3 4 4 4 3 3 3 2 1 3 10 5 5 13 8 6 9 11 13 12 9 9 9 8 8 7 5 4 2 1 4
12 12 12 13 13 13 13 12 9 9 4 2 4 6 5 3 2 3 2 5 9 9 13 13 12 17 16 7 7 2 6 8 6 2 7 10 10 7 12 8 9 8 6 11 12 8 8 6 9 6 8 10 4 4 8 7 3 3 4 4 5 3 4 6 2 3 4 1 9 7 14 7 6 7 12 12 11 10 10 10 10 10 10 8 7 7 7 7
12 12 12 13 13 13 13 12 10 5 2 3 7 9 3 2 2 6 2 4 5 4 11 12 17 9 12 8 7 14 10 5 6 5 7 10 13 6 10 10 10 7 11 12 11 12 4 8 7 10 7 11 10 7 11 7 5 1 4 4 3 4 3 1 4 1 3 8 6 11 9 6 9 8 8 10 10 11 10 10 11 11 10 9 9 10 9 7
12 12 12 13 12 12 12 13 5 3 3 7 9 10 10 9 5 3 2 3 3 6 5 2 5 8 6 6 8 10 9 3 9 2 8 13 9 8 7 4 6 8 9 8 11 10 5 5 11 10 6 6 11 6 7 9 6 4 5 7 7 4 5 2 6 8 7 6 3 3 5 3 5 7 10 8 8 11 10 12 12 11 12 12 12 11 9 7
12 13 12 11 12 12 13 7 2 3 8 6 4 1 1 4 5 4 3 2 5 2 4 5 9 6 11 7 10 6 9 5 10 10 6 9 6 7 6 6 3 11 9 12 11 4 5 6 11 13 11 8 10 8 7 7 7 6 6 8 5 4 4 4 6 5 7 9 5 2 1 4 1 5 8 8 9 11 10 13 12 12 11 11 11 11 10 10
13 13 12 11 11 10 7 2 3 8 7 2 3 3 3 5 4 5 3 2 4 4 7 3 6 2 5 12 13 11 6 5 4 5 8 6 11 1 12 6 3 3 4 4 3 8 5 7 5 7 10 10 7 7 5 7 6 7 1 10 5 4 6 5 5 4 3 4 3 3 1 7 5 4 6 7 10 10 12 13 13 12 12 12 12 12 11 11
13 13 12 11 9 8 6 7 8 7 7 2 4 6 7 5 3 2 2 2 3 1 3 3 5 4 3 11 15 13 1 10 8 6 11 8 6 3 5 13 11 11 6 6 13 3 9 8 9 10 8 6 8 5 9 8 8 2 3 9 11 9 6 4 3 3 2 5 5 4 3 5 1 2 4 6 7 11 12 12 14 12 11 11 13 12 12 12
13 13 11 10 11 11 8 7 8 10 3 2 7 8 5 6 4 2 0 1 4 2 3 9 3 5 4 11 10 9 3 3 3 8 8 6 4 4 7 7 7 12 4 8 8 4 3 11 11 12 10 8 4 6 11 10 9 2 6 6 6 5 5 1 3 5 3 4 5 5 4 4 2 2 2 5 7 8 7 9 12 12 12 11 10 11 11 11
14 13 12 11 9 5 4 4 11 9 6 8 7 9 8 3 4 2 2 5 3 1 2 1 5 7 10 14 10 6 5 3 2 5 8 6 8 3 5 2 9 10 7 2 2 2 2 2 6 6 8 8 8 4 11 14 1 9 8 9 5 4 2 2 3 0 3 3 4 3 2 2 5 1 3 4 3 2 3 7 9 10 11 11 11 12 10 10
15 14 11 10 7 4 6 8 7 6 3 3 8 9 2 2 2 1 2 4 1 2 1 3 3 10 12 14 9 7 1 1 8 13 9 6 5 3 7 6 3 5 3 3 5 2 2 5 6 3 3 4 7 7 3 4 5 10 4 5 7 4 1 2 1 1 2 3 3 1 2 5 6 3 1 4 4 3 3 8 10 10 10 10 10 9 10 10
15 15 14 9 8 6 7 4 2 2 4 8 9 3 3 3 2 5 3 3 2 4 5 3 5 7 11 5 6 10 8 5 7 13 13 12 9 9 10 8 9 9 10 9 11 2 5 7 1 1 3 9 7 9 3 3 3 3 5 9 10 4 2 3 3 5 6 2 2 1 2 3 6 3 5 5 4 5 5 8 9 9 9 10 10 10 9 9
14 14 17 13 11 10 12 12 9 7 7 8 5 3 3 2 5 5 6 4 1 1 2 7 2 6 8 8 8 10 5 8 6 9 12 7 11 8 2 5 6 3 10 4 5 6 4 1 2 3 3 3 12 10 7 6 7 6 10 9 11 8 6 3 1 2 2 2 2 1 3 5 6 4 4 5 5 9 10 10 10 9 10 9 9 9 9 11
14 15 12 8 9 10 10 8 6 2 5 6 3 3 1 3 4 5 7 3 4 1 5 3 11 5 10 9 8 11 6 2 10 8 12 8 10 8 5 1 7 6 4 4 8 8 8 8 9 9 7 6 10 7 11 6 8 6 2 9 4 5 4 5 5 6 5 4 1 2 3 6 9 6 8 7 8 10 10 9 9 10 9 8 8 10 11 11
15 14 11 10 10 11 12 11 8 6 4 1 2 3 5 6 2 2 1 3 2 7 6 8 9 4 9 4 4 13 2 4 3 11 7 12 9 7 9 9 3 3 4 10 2 2 9 3 1 8 0 11 11 5 9 10 8 2 2 4 5 8 2 3 1 1 5 5 2 5 2 2 4 6 3 7 9 9 9 10 9 10 8 8 10 11 10 10
13 8 7 10 8 7 7 7 9 8 5 2 3 4 7 3 3 1 1 2 3 3 10 16 8 7 7 6 4 15 2 5 8 7 3 11 7 9 6 5 8 6 8 6 5 4 3 7 2 4 1 13 12 11 4 12 8 6 4 9 3 4 9 5 2 3 2 3 2 1 3 4 5 3 8 9 11 10 9 9 9 9 9 10 10 9 10 9
8 10 7 4 7 5 6 8 10 9 4 2 4 6 5 3 3 3 1 4 4 6 8 6 1 3 7 7 7 14 4 9 1 4 5 4 4 5 6 4 2 5 8 6 2 3 7 5 2 6 6 3 4 4 7 2 3 8 7 7 4 1 4 3 5 0 1 3 2 0 5 6 8 5 9 11 11 11 10 10 9 9 9 10 7 8 8 8
9 8 10 11 7 6 9 11 13 7 3 2 6 4 2 4 3 3 4 7 7 3 6 2 4 3 5 3 7 12 7 10 6 3 6 5 3 3 5 5 5 9 9 5 5 3 2 4 2 3 1 3 3 10 6 4 5 9 8 9 6 3 7 2 3 3 5 2 4 2 6 5 7 3 9 11 11 11 10 10 8 8 8 8 8 8 9 8
7 5 5 2 4 10 11 14 8 7 2 4 2 4 1 5 2 3 1 6 7 8 7 8 5 3 2 4 3 2 8 7 8 3 8 4 4 4 6 3 6 7 7 6 3 2 2 3 1 2 3 4 4 6 7 6 3 6 7 7 3 2 4 5 0 3 4 5 5 3 5 4 7 3 12 11 12 11 11 10 8 7 7 7 7 8 9 10
5 3 2 4 4 8 13 10 5 2 1 4 3 4 1 3 1 3 6 7 4 4 7 8 6 6 3 2 6 5 2 10 9 3 1 1 2 2 2 2 5 7 3 2 3 2 1 2 4 0 2 3 7 3 7 10 7 6 9 4 3 3 2 4 4 2 3 6 4 6 4 4 2 1 10 11 12 12 13 11 7 6 7 8 8 8 7 8
3 3 1 4 7 9 9 3 4 6 5 0 1 2 2 2 3 3 7 9 7 7 11 12 8 5 2 3 5 6 2 4 4 4 2 4 2 4 3 3 2 8 4 2 3 2 2 1 4 2 6 3 1 1 3 2 7 11 8 7 7 8 7 9 3 2 2 5 6 6 4 2 3 1 5 11 11 13 12 13 9 7 7 8 8 8 8 8
2 2 2 5 9 10 4 5 1 0 1 3 4 4 2 1 1 4 6 8 7 5 5 11 13 11 5 6 5 4 5 3 1 2 1 5 1 1 3 1 1 5 8 4 5 2 3 2 5 3 3 4 2 5 1 2 5 5 3 6 2 2 7 4 6 3 3 3 4 2 2 1 4 4 7 11 10 13 13 12 10 8 7 8 7 7 8 9
3 2 3 8 8 4 3 1 1 1 2 2 3 4 2 3 3 2 4 6 7 8 8 8 8 6 7 4 4 4 5 4 2 2 2 3 2 2 1 2 3 2 4 2 3 3 2 2 7 5 4 2 0 1 5 4 2 9 7 5 1 5 3 5 4 9 5 5 5 1 2 3 3 7 10 13 11 11 11 11 10 8 7 7 7 7 8 8
3 2 4 3 5 3 2 3 4 2 2 3 0 4 1 3 2 3 8 9 5 2 4 4 2 6 3 2 6 6 3 4 2 3 3 1 3 0 0 2 7 6 6 7 5 5 2 2 2 6 4 3 5 3 2 3 5 4 3 3 3 1 5 5 7 2 4 6 2 8 5 3 5 8 9 12 13 13 13 10 8 9 7 7 7 7 7 9
4 2 3 3 4 4 1 1 1 2 4 1 2 3 2 2 5 11 10 8 5 5 3 5 5 1 2 2 5 3 4 4 4 3 2 1 3 1 3 2 3 2 2 1 4 8 5 2 1 3 6 6 6 7 6 5 3 2 3 3 6 2 8 6 5 4 3 5 2 3 2 4 8 9 11 11 13 12 11 10 9 7 8 8 7 7 8 8
1 3 2 2 3 3 3 2 2 2 3 2 1 4 2 2 3 5 8 9 12 4 5 7 4 2 3 8 6 4 5 4 4 4 3 2 2 2 2 2 3 4 7 11 7 7 5 4 6 1 2 2 2 3 4 1 4 3 2 5 3 3 4 1 5 4 4 7 5 2 7 12 11 11 10 10 10 11 11 9 9 8 8 9 8 7 7 8
2 1 4 4 1 5 5 4 3 1 2 4 1 1 4 4 4 6 8 3 5 6 5 2 3 2 1 7 5 6 4 5 5 10 1 5 1 2 2 3 5 9 11 8 5 6 5 5 7 11 13 7 4 3 3 2 6 4 4 3 4 2 3 0 5 4 8 9 3 1 12 16 14 13 11 11 10 10 10 9 8 7 8 9 8 9 9 9
1 1 2 0 1 1 2 3 5 6 1 1 2 1 2 2 3 3 2 5 2 1 4 3 5 6 0 5 7 6 1 5 3 3 3 2 5 1 4 7 4 6 2 4 3 4 5 4 4 11 10 10 8 9 9 12 12 10 9 6 5 5 3 4 2 2 0 3 3 11 13 13 13 10 10 10 10 10 10 9 9 8 9 10 9 10 10 10
2 3 3 1 1 1 3 1 5 8 5 3 2 1 2 2 2 3 1 5 2 3 2 2 5 6 3 2 2 6 6 8 2 2 3 5 2 4 4 3 6 5 4 4 5 2 6 6 6 11 13 11 9 7 7 13 11 12 11 10 8 9 10 10 9 4 3 3 6 17 15 12 7 8 10 10 10 10 9 9 8 8 10 10 9 10 10 9
1 2 1 2 2 2 2 1 3 5 4 5 2 4 3 2 1 3 0 2 2 2 2 7 5 9 8 8 5 6 2 1 11 8 4 5 3 1 3 1 5 3 4 4 2 2 4 3 8 2 6 8 9 8 9 10 11 15 11 10 9 10 12 11 11 11 12 13 15 17 16 11 6 10 11 10 10 9 9 10 9 9 11 10 10 10 9 9
3 2 3 3 2 1 0 1 3 4 2 1 2 3 1 1 1 1 1 1 1 3 4 8 4 10 9 11 13 8 3 5 9 7 6 2 6 2 1 2 1 5 3 4 3 3 5 6 3 1 4 3 4 8 9 10 13 16 13 13 10 6 6 4 5 2 1 11 15 15 11 7 7 10 11 10 10 10 10 9 8 9 10 9 11 10 9 8
3 2 2 2 2 1 2 1 1 2 2 3 5 4 2 0 1 1 2 1 5 4 4 3 1 10 7 13 12 7 4 5 10 8 9 10 11 9 9 7 4 3 4 3 1 4 2 10 6 3 6 2 5 1 1 4 3 3 6 6 6 8 8 9 9 10 6 13 13 7 5 8 10 10 11 9 10 10 9 8 9 10 10 9 10 9 8 8
Wind_Direction
335 332 329 330 329 329 330 323 321 326 332 327 321 326 326 326 326 325 325 326 328 328 327 327 334 331 327 334 332 329 348 330 315 305 270 239 162 204 188 110 165 193 194 109 126 133 116 127 128 166 135 178 120 180 149 185 117 182 196 187 200 197 212 193 206 193 51 314 336 343 7 332 348 73 93 86 65 79 93 75 66 62 60 86 112 131 142 151
334 334 332 329 328 325 328 328 325 318 319 326 326 317 322 328 322 323 327 324 326 327 326 329 328 332 330 330 332 342 348 316 300 279 243 144 213 195 197 157 156 174 153 143 158 151 136 154 147 156 147 163 348 155 162 176 191 195 137 195 225 183 226 184 169 217 294 333 317 316 344 349 330 283 85 251 123 131 115 72 82 76 81 103 127 140 148 156
337 334 329 329 330 326 326 326 321 319 316 320 322 319 318 319 324 324 323 323 326 326 325 328 329 328 329 332 328 8 333 313 275 257 276 197 228 214 190 173 151 156 169 160 182 161 165 162 149 143 128 130 181 153 204 155 193 189 192 202 223 189 258 231 209 265 216 293 308 329 334 318 311 252 37 221 149 189 175 140 112 104 124 133 142 151 155 162
337 334 332 329 332 328 330 326 321 319 314 311 323 321 315 317 315 321 319 320 323 323 324 324 329 328 326 329 339 1 340 263 251 253 323 287 228 224 204 169 161 166 141 131 154 152 101 126 154 156 129 168 140 203 174 170 204 138 211 220 228 179 247 235 204 238 259 187 295 326 304 324 41 307 264 156 151 188 234 200 151 162 154 152 158 160 163 169
335 334 331 333 332 325 320 322 318 321 321 312 319 320 320 315 316 315 319 319 319 325 323 322 328 326 326 328 351 14 312 299 300 200 259 304 227 214 191 174 169 166 160 123 111 107 141 143 147 92 155 159 154 154 227 172 255 134 226 226 210 117 234 241 242 227 174 118 186 295 317 325 309 172 268 178 29 98 67 68 161 154 158 159 165 170 170 171
336 334 332 328 327 328 323 314 313 314 313 313 309 315 313 317 319 320 320 317 319 323 321 323 323 327 328 332 349 162 235 249 72 50 330 296 264 205 176 164 160 153 137 149 138 136 125 138 155 167 173 163 173 187 171 190 156 215 169 233 237 222 259 274 238 116 131 310 314 304 297 318 14 309 113 288 46 15 249 258 161 155 165 165 162 165 172 173
335 330 330 328 330 325 323 319 310 306 307 312 313 311 312 311 317 319 314 319 314 321 322 321 322 325 338 343 140 316 222 292 322 224 15 58 44 141 157 155 148 154 153 130 139 148 161 151 179 181 161 150 187 207 173 174 202 240 219 134 252 212 236 260 288 254 274 234 272 251 348 288 327 300 82 278 91 283 277 182 149 148 156 160 164 175 173 170
337 333 332 331 324 319 315 311 308 313 311 306 306 313 315 311 314 310 313 309 316 313 318 319 322 326 360 347 270 170 170 241 259 10 332 56 99 131 140 140 151 160 158 163 157 158 153 152 183 131 186 182 173 194 162 154 169 206 237 222 267 228 237 254 264 277 276 260 260 237 248 186 196 266 116 20 65 98 124 137 136 147 156 167 172 170 162 157
333 332 333 333 326 318 313 313 314 307 308 311 307 308 310 313 311 312 308 313 314 313 306 317 322 330 89 36 64 280 237 246 308 296 326 266 139 134 132 140 173 170 173 156 169 149 153 192 162 179 197 196 162 189 160 184 214 202 222 172 249 245 296 310 290 275 281 274 212 240 239 133 217 85 201 42 63 124 134 136 145 152 162 174 177 162 158 155
327 330 327 327 329 322 318 312 307 312 310 304 305 305 310 307 306 304 305 307 307 307 306 310 309 333 360 328 188 236 273 250 298 324 300 132 139 144 171 150 164 165 157 169 148 153 185 179 183 183 117 63 162 184 163 203 199 167 198 212 241 258 347 317 260 288 349 269 227 251 278 98 123 197 164 77 133 142 139 140 153 163 174 177 157 154 157 162
329 326 323 321 321 322 321 323 313 303 305 312 305 305 304 302 301 300 304 303 304 301 299 293 314 313 300 219 215 229 239 342 15 13 47 122 135 161 174 168 161 164 160 153 174 184 158 134 106 122 239 195 170 138 178 207 126 156 167 180 250 275 273 254 284 269 297 281 195 222 275 150 44 182 203 150 158 155 143 148 158 175 187 159 145 151 158 168
324 322 319 318 317 316 314 311 312 313 304 304 309 302 302 303 298 300 296 300 295 295 295 294 281 284 235 241 232 223 112 56 9 40 56 103 127 162 25 190 170 165 156 170 189 170 157 154 156 164 186 132 172 111 222 171 188 174 169 229 227 20 251 202 235 285 188 245 161 168 220 273 105 201 119 156 156 156 152 154 167 181 176 147 150 142 155 176
323 320 315 317 315 316 311 311 318 313 310 302 309 307 299 295 296 294 293 288 288 288 292 291 288 224 258 265 232 244 277 276 323 321 323 326 42 68 152 194 261 168 188 165 168 181 203 158 181 153 115 173 146 184 71 158 141 110 134 234 257 241 254 199 214 161 187 246 160 185 214 213 329 239 46 145 162 152 146 166 178 187 166 151 156 151 154 175
322 313 310 314 316 317 310 315 317 315 313 312 305 305 304 304 300 291 286 281 284 285 289 276 262 231 209 254 265 256 237 269 278 280 261 221 257 220 99 184 226 87 50 75 117 179 121 145 181 117 114 202 159 146 158 62 63 195 127 135 246 208 209 119 352 117 200 110 219 250 227 118 292 23 15 339 189 160 161 176 189 187 157 154 161 153 159 179
316 314 309 312 319 317 315 317 315 315 314 311 307 303 299 297 292 286 282 282 273 280 270 261 235 198 233 265 274 266 254 212 258 239 160 168 191 167 187 156 197 76 29 93 143 200 128 173 145 172 191 74 124 217 107 133 46 101 156 201 115 210 178 323 132 190 199 75 92 224 224 351 43 9 356 38 192 301 161 178 188 174 155 163 167 153 161 169
312 311 316 317 319 321 312 313 318 318 312 313 317 311 304 296 290 285 277 271 272 255 234 241 193 205 303 283 273 295 112 170 243 236 188 190 179 196 146 132 117 86 166 70 64 101 145 236 182 183 135 101 124 164 114 154 144 12 223 110 165 195 216 307 129 231 316 123 70 251 158 152 80 1 8 33 151 95 111 160 215 191 168 167 177 171 163 152
318 315 314 314 319 317 321 320 319 314 314 317 313 306 303 296 289 283 267 244 236 219 196 200 173 198 248 201 312 255 225 216 198 83 180 195 177 146 130 127 151 132 105 62 97 112 139 187 90 105 2 149 146 169 168 191 166 169 332 148 124 200 159 164 359 99 67 231 177 68 195 68 27 359 14 16 26 136 97 137 133 144 171 182 192 207 181 155
317 316 316 319 319 323 319 318 317 317 323 320 318 317 305 301 311 115 141 166 163 181 193 288 179 207 259 255 277 197 343 281 177 148 155 158 152 149 148 153 112 133 137 122 91 179 165 175 269 181 152 165 177 184 195 187 168 159 162 151 150 48 288 32 157 107 192 19 169 126 70 33 29 29 23 16 10 88 60 79 158 165 153 174 195 213 206 188
317 315 314 315 319 318 316 318 320 320 317 327 326 309 296 312 72 97 123 150 145 110 187 197 179 188 70 279 247 343 289 210 65 145 152 146 165 138 78 78 135 137 150 162 162 168 164 129 171 169 187 178 187 190 179 139 161 167 177 170 129 155 157 182 163 289 308 83 92 68 103 51 20 20 16 15 20 48 47 48 82 157 174 177 190 214 204 177
316 311 312 320 318 321 319 316 310 314 323 325 333 329 4 197 186 117 165 219 234 206 29 174 209 318 329 222 59 344 247 86 186 225 139 161 139 151 127 134 122 121 152 175 137 196 162 170 185 191 176 169 154 170 180 143 158 100 91 126 141 138 186 292 281 265 352 88 36 95 86 60 42 22 17 18 31 41 33 29 25 40 193 204 212 225 184 159
317 320 320 318 314 310 311 316 310 313 324 333 316 318 228 190 206 194 187 232 240 264 256 221 203 219 235 74 360 23 12 319 66 48 173 167 161 154 161 143 153 155 187 152 146 128 184 187 196 158 162 169 173 155 97 105 100 128 121 122 131 181 170 154 93 8 304 161 91 100 84 65 49 40 37 41 45 42 30 27 26 21 20 341 238 49 73 93
317 316 315 312 311 315 311 306 317 322 325 275 293 270 280 246 355 40 319 277 223 231 240 241 208 255 265 273 319 6 346 310 303 228 154 166 174 173 166 164 164 170 132 135 105 150 189 200 154 185 135 93 91 146 145 139 134 114 152 135 133 180 286 41 28 37 31 98 128 126 88 70 59 53 46 46 54 51 46 43 37 38 37 33 10 344 173 174
316 316 317 320 316 311 309 310 314 317 294 240 250 229 242 233 282 3 324 276 275 226 220 223 225 239 252 252 260 144 230 236 254 250 159 182 176 201 146 158 174 138 154 170 169 148 177 201 188 132 140 119 90 132 119 87 76 135 129 172 179 118 182 148 31 353 4 149 153 147 99 84 77 71 56 49 50 54 53 54 54 50 46 40 34 30 18 14
317 315 314 312 313 313 317 320 323 307 216 254 247 229 242 262 315 331 203 244 299 248 194 205 204 207 226 195 197 181 194 220 187 252 173 177 172 150 156 160 147 155 174 183 166 170 161 153 125 139 159 141 138 156 138 152 160 340 197 175 151 177 224 159 139 34 62 51 128 134 97 89 29 34 49 45 48 52 50 56 53 51 51 52 51 44 37 28
318 315 313 311 310 314 329 327 301 256 298 284 257 250 245 260 279 273 261 274 222 269 178 232 175 233 216 112 137 163 206 224 215 221 162 186 146 158 162 123 145 182 164 177 143 161 156 137 136 139 139 123 130 147 166 148 165 173 238 199 194 188 172 128 128 148 127 149 239 311 114 47 19 45 50 43 46 48 46 55 50 48 45 43 41 39 38 50
317 313 313 314 317 323 321 291 176 315 308 267 230 55 172 218 250 211 234 291 281 201 136 226 155 220 140 177 156 173 136 227 202 205 172 189 179 153 121 169 202 174 160 168 164 164 145 140 163 157 155 149 148 159 192 181 169 175 201 190 219 179 167 138 122 149 144 158 174 2 216 126 34 41 37 50 55 54 51 53 55 54 53 49 47 45 41 38
317 312 312 316 316 322 315 251 340 315 284 239 125 24 342 323 299 200 224 204 281 173 160 36 189 173 188 170 155 153 177 218 104 142 183 169 187 228 159 162 102 81 157 153 130 187 123 143 161 149 143 146 148 177 175 184 149 192 158 172 160 163 196 200 160 216 105 34 87 88 21 134 146 66 27 55 62 52 51 50 49 52 53 53 50 51 50 44
314 311 311 314 312 304 282 298 301 283 248 55 357 358 325 323 337 182 255 334 246 120 178 185 229 128 184 155 163 172 293 123 138 186 187 167 179 102 196 169 180 158 178 172 180 106 147 156 163 159 153 162 182 164 153 189 174 186 162 168 177 200 208 148 169 136 147 185 127 104 314 122 101 47 33 50 63 45 45 47 49 50 50 51 51 53 54 56
312 312 312 308 297 296 289 271 277 260 246 341 343 324 327 314 221 239 327 208 249 288 87 119 220 121 88 158 180 202 86 226 179 141 148 149 281 160 170 180 149 154 163 202 165 125 245 175 176 157 162 184 171 182 159 172 183 234 123 84 74 78 74 151 176 150 173 192 155 142 334 132 137 29 18 58 66 48 43 52 58 49 50 52 58 52 52 55
309 314 314 312 307 278 262 243 249 243 270 309 317 311 303 183 184 214 129 237 12 310 168 99 195 170 153 154 187 220 172 156 133 104 142 162 187 62 31 104 146 149 155 52 132 118 113 327 168 154 184 170 171 138 167 178 173 119 140 117 102 66 81 72 73 84 143 181 130 350 317 248 143 221 359 24 36 40 70 74 65 59 53 50 46 45 42 39
309 308 303 301 290 299 302 273 265 249 225 318 322 303 166 213 226 173 195 250 217 305 12 152 157 131 154 155 171 206 169 83 132 140 142 157 149 88 138 111 51 113 84 139 160 100 98 121 160 212 144 80 115 104 36 12 140 157 148 138 128 90 97 128 145 286 200 161 92 163 345 275 159 238 209 78 94 85 73 77 72 67 59 55 52 48 43 41
309 306 297 288 271 267 253 252 80 134 352 339 328 307 208 178 359 199 216 120 2 320 347 15 129 159 175 183 139 166 172 126 157 152 157 172 156 164 178 168 162 152 177 173 181 86 159 166 179 121 236 140 140 124 98 136 178 223 139 150 174 158 137 173 183 191 204 173 93 284 291 95 50 85 132 117 104 118 76 76 79 70 65 61 55 51 45 43
304 297 293 283 276 261 252 257 274 298 330 323 320 214 212 175 224 217 265 336 222 15 350 357 270 172 171 172 183 162 149 161 166 160 147 146 162 164 31 175 161 154 176 164 138 167 193 286 249 166 130 220 152 158 149 167 197 181 182 164 176 169 172 165 172 21 41 71 211 317 274 73 119 119 132 127 113 79 78 78 77 77 67 59 52 45 42 41
298 300 298 266 251 241 244 240 241 271 305 319 282 177 34 180 243 213 233 293 309 303 319 304 335 174 175 185 173 150 163 24 164 159 159 155 166 162 178 212 158 127 84 140 176 176 176 195 221 161 191 156 171 171 166 145 163 193 46 185 191 150 165 159 172 171 171 118 65 360 220 136 163 152 137 138 101 95 86 83 77 72 65 60 56 51 44 42
301 295 275 271 260 254 242 236 232 222 210 276 195 177 192 220 307 348 51 351 16 323 300 326 317 236 183 233 125 168 179 137 169 145 156 154 174 161 171 174 203 99 125 155 220 141 196 224 146 179 99 155 174 161 144 135 155 179 150 23 156 190 125 130 56 75 130 135 117 23 40 47 71 124 127 130 117 101 100 86 81 68 59 52 49 41 37 39
306 282 269 276 265 260 198 213 197 181 176 177 178 183 217 204 207 64 73 301 55 0 318 309 269 213 173 175 155 175 288 160 157 144 143 176 147 163 163 160 183 190 160 171 154 153 110 192 119 151 73 172 173 138 178 158 170 171 155 194 168 66 106 106 108 32 51 77 52 14 123 110 107 182 172 155 122 120 110 88 77 70 62 53 48 40 34 31
299 306 288 272 258 197 157 169 162 155 152 225 178 212 210 245 221 162 4 5 351 306 299 328 3 201 171 169 165 176 173 93 200 152 158 121 151 193 168 184 157 167 196 128 177 274 158 154 347 162 191 272 42 124 112 7 130 109 198 168 113 67 41 135 154 47 34 162 105 203 158 150 165 155 174 150 129 125 111 99 88 79 69 67 59 50 43 38
307 294 284 271 261 136 142 154 148 148 166 203 206 215 153 239 151 148 78 334 321 285 277 296 281 260 166 159 168 168 176 148 186 172 142 192 162 136 164 169 197 187 194 254 170 194 203 127 142 312 84 82 113 122 96 84 316 167 166 150 178 154 192 18 116 156 148 106 131 168 181 194 210 134 175 169 137 134 120 108 92 74 69 69 61 53 47 42
290 294 296 22 52 136 145 152 153 137 184 192 234 219 200 246 195 56 110 258 281 294 290 252 239 319 142 163 135 100 170 149 160 161 150 228 170 177 181 129 182 229 197 184 122 140 23 125 67 292 135 149 130 179 170 162 98 27 122 132 344 197 155 154 243 114 107 127 135 141 182 210 207 161 188 164 145 135 115 100 90 83 79 76 65 51 41 35
280 286 242 66 117 130 147 155 138 180 188 202 178 222 282 244 177 135 239 261 272 229 232 275 235 267 235 218 173 145 114 129 160 185 85 214 127 13 222 264 171 190 181 261 108 250 118 300 133 79 290 171 164 227 184 157 153 140 159 141 118 45 344 69 52 32 159 150 166 136 177 239 137 168 175 176 148 135 125 117 110 97 81 76 69 63 57 47
288 261 12 123 136 141 148 191 179 186 183 281 237 252 307 256 117 212 246 244 257 242 269 280 293 283 240 128 180 138 95 124 131 159 153 167 188 172 251 188 204 166 113 95 132 167 91 1 130 136 141 179 65 353 296 182 153 155 158 156 142 128 134 163 152 98 85 142 152 156 194 170 81 235 175 147 128 120 122 118 117 108 95 81 73 69 67 60
286 220 79 136 141 158 177 153 188 83 186 187 188 185 192 131 229 233 260 264 240 262 233 270 262 249 237 212 146 126 119 79 99 122 272 157 210 353 141 153 213 163 155 178 181 220 147 126 96 94 80 72 48 20 334 189 73 42 154 158 154 88 143 171 168 158 100 35 114 61 148 132 64 85 95 112 115 121 120 118 118 114 102 86 75 71 67 61
226 329 76 151 162 184 291 74 15 166 209 235 336 286 246 270 239 153 265 251 261 236 255 221 235 198 232 190 162 114 121 81 5 103 132 104 130 206 109 195 175 143 154 96 65 179 119 88 94 85 98 59 195 129 67 18 113 109 51 44 155 154 178 168 170 155 133 140 147 165 170 117 106 90 97 108 106 102 106 116 120 115 101 87 75 65 62 58
330 309 95 131 183 295 243 165 191 204 243 293 178 281 220 247 228 271 241 237 214 237 221 254 260 217 232 221 136 145 179 104 0 98 96 259 104 163 30 224 192 160 165 192 162 184 167 296 120 119 101 73 89 124 97 61 58 60 81 33 14 85 81 90 89 97 111 192 155 159 182 171 131 111 109 108 108 108 113 114 116 114 107 92 81 65 59 56
304 256 55 135 206 298 288 75 142 145 209 250 348 291 270 248 207 226 231 247 210 248 333 253 242 245 164 197 89 100 58 114 126 10 75 93 87 16 23 117 225 122 22 33 78 118 69 40 336 148 147 151 154 170 165 166 109 89 49 48 24 77 125 145 122 172 152 177 173 210 121 95 121 123 118 115 111 107 103 109 107 106 109 100 80 68 58 54
284 122 36 159 237 276 272 258 242 156 135 180 288 245 219 254 264 240 205 249 239 211 185 269 270 230 96 126 79 52 67 3 114 166 169 149 135 52 336 42 107 105 100 89 68 74 104 74 29 334 155 132 94 72 356 25 124 119 58 36 18 15 323 32 84 150 179 151 192 229 144 145 149 147 133 128 123 120 118 115 113 109 103 90 83 73 64 54
285 197 156 186 186 248 268 281 284 178 208 184 183 163 216 210 279 303 169 236 170 189 172 254 303 131 115 102 114 84 3 88 61 107 272 130 341 89 346 62 94 86 100 79 37 85 99 85 35 63 60 59 60 70 57 51 104 79 85 37 28 28 341 108 147 166 115 117 202 125 155 148 164 148 137 127 117 109 106 109 107 107 102 93 86 77 66 58
199 309 335 184 226 187 170 253 214 244 301 196 271 331 253 223 238 262 315 231 310 206 186 244 14 26 352 130 135 97 71 74 63 108 130 20 128 19 82 21 60 322 33 67 360 91 100 100 97 84 69 69 64 85 89 82 73 84 74 62 48 27 49 86 61 17 285 178 195 146 158 140 144 133 126 120 120 113 114 111 106 109 100 87 79 72 65 54
267 299 275 303 266 206 186 52 176 208 231 225 279 256 274 224 261 239 154 305 326 3 55 121 325 340 28 335 91 126 153 117 1 316 173 140 129 136 105 116 56 8 77 82 49 79 104 64 119 111 89 61 57 74 88 99 100 75 59 59 64 74 77 87 84 69 34 79 103 136 128 108 106 117 109 109 109 109 110 109 106 97 85 80 76 69 63 55
145 310 345 317 309 302 257 91 170 169 211 219 232 238 230 200 241 304 226 334 340 323 49 77 52 60 58 59 54 101 239 232 157 152 234 130 91 6 108 114 144 44 39 68 96 339 117 138 161 167 76 51 56 86 96 99 96 83 61 62 74 86 86 79 86 76 83 89 112 118 110 102 81 104 107 109 107 108 97 91 86 83 79 79 76 68 60 54
312 289 276 300 270 215 145 156 157 169 182 207 221 262 224 204 157 234 352 249 313 319 9 121 127 70 43 65 64 59 348 111 71 83 150 202 120 216 130 120 304 116 39 72 41 20 64 144 170 234 101 67 63 88 97 97 93 84 57 37 34 25 62 40 60 357 148 140 129 119 123 133 135 117 109 105 104 95 95 91 83 74 77 78 74 66 57 47
281 272 300 287 243 308 229 97 39 155 220 199 202 245 237 282 240 60 50 5 55 66 13 27 216 88 58 61 48 345 330 89 89 91 89 81 90 78 68 76 32 129 128 94 352 70 104 141 161 165 93 139 163 262 6 302 144 90 28 358 30 78 98 93 68 57 77 137 136 155 142 123 130 129 111 98 93 90 84 81 82 77 71 72 71 65 58 49